Regional Weather Roundup
Issued by NWS Charleston, SC

Current Version | Previous Version | Graphics & Text | Print | Product List | Glossary On
Versions: 1 2 3 4 5 6 7 8 9 10 11 12 13 14 15 16 17 18 19 20 21 22 23 24 25 26 27 28 29 30 31 32 33 34 35 36 37 38 39 40 41 42 43 44 45 46 47 48 49 50
000
ASUS42 KCHS 271612
RWRCHS

REGIONAL WEATHER ROUNDUP
NATIONAL WEATHER SERVICE CHARLESTON SC
1200 PM EDT MON APR 27 2015

NOTE: "FAIR" INDICATES FEW OR NO CLOUDS BELOW 12,000 FEET WITH NO
SIGNIFICANT WEATHER AND/OR OBSTRUCTIONS TO VISIBILITY.

NOT ALL STATIONS ARE QUALITY CONTROLLED BY THE NATIONAL
WEATHER SERVICE. USE DATA WITH CAUTION...ESPECIALLY
DEWPOINT OBSERVATIONS.

SCZ027-030-031-034>040-042>050-271700-
...SOUTHEAST SOUTH CAROLINA...

CITY           SKY/WX    TMP DP  RH WIND       PRES   REMARKS
N CHARLESTON   MOSUNNY   67  46  47 N10G17    29.86S
WATERFRONT PRK   N/A     63 N/A N/A N10         N/A
MOUNT PLEASANT FAIR      64  48  55 MISG      29.86S
PINOPOLIS      NOT AVBL
MONCKS CORNER  FAIR      64  50  59 NW5       29.87S
SUMMERVILLE    FAIR      66  48  52 CALM      29.88R
BEAUFORT MCAS  PTSUNNY   67  50  54 N9        29.86S
BEAUFORT ARPT  PTSUNNY   66  54  63 NW7       29.86R
HILTON HEAD IS MOSUNNY   64  54  68 N8        29.87F
WALTERBORO     SUNNY     64  46  52 NE7       29.88S
ALLENDALE      FAIR      64  48  55 CALM      29.87F

...SOUTHERN MIDLANDS AND PEE DEE...

CITY           SKY/WX    TMP DP  RH WIND       PRES   REMARKS
GEORGETOWN     NOT AVBL
KINGSTREE      NOT AVBL
ORANGEBURG     SUNNY     67  46  47 NE8       29.88R
BARNWELL       FAIR      66  48  52 N5        29.89S
AIKEN          FAIR      64  41  42 N8        29.92S
MANNING        FAIR      63  36  36 N8        29.87S
COLUMBIA       PTSUNNY   67  42  40 NE8G16    29.87F
SUMTER         MOSUNNY   65  46  49 N7        29.85F
FLORENCE       MOSUNNY   66  46  48 MISG      29.86F
MYRTLE BEACH   SUNNY     64  39  39 NW10G16   29.87
N MYRTLE BEACH SUNNY     65  43  44 VRB6      29.85R

$$

GAZ063-065-086>088-099>101-113>116-118-119-134>141-150-271700-
...SOUTHEAST GEORGIA...

CITY           SKY/WX    TMP DP  RH WIND       PRES   REMARKS
SAVANNAH ARPT  PTSUNNY   69  54  58 N9G16     29.85F
HUNTER AAF     PTSUNNY   68  59  72 VRB6      29.83S
FORT STEWART   PTSUNNY   66  57  72 NW6       29.83F
STATESBORO       N/A     68  53  58 NE8       29.87F
SYLVANIA       CLOUDY    66  54  64 NE3       29.88F
CLAXTON        FAIR      68  54  60 NE6       29.87S

...CSRA...CENTRAL AND FAR SOUTHEAST GEORGIA...

CITY           SKY/WX    TMP DP  RH WIND       PRES   REMARKS
THOMSON        SUNNY     67  48  50 CALM      29.93S
AUGUSTA-BUSH   SUNNY     67  47  48 CALM      29.89S
AUGUSTA-DANIEL SUNNY     67  44  43 N7        29.90S
SWAINSBORO     NOT AVBL
VIDALIA        MOSUNNY   68  55  64 NE8       29.86F
EASTMAN        FAIR      70  56  60 NE5       29.89S HAZE
HAZLEHURST     FAIR      68  59  73 N5        29.85F
ALMA           CLOUDY    67  58  72 NW6       29.85F
WAYCROSS       CLOUDY    70  65  84 N6        29.85R
JESUP          CLOUDY    66  63  88 NE6       29.85F
BAXLEY         PTSUNNY   66  59  77 N9        29.85F
BRUNSWICK      CLOUDY    66  61  82 N3        29.85S
SAINT SIMONS   CLOUDY    67  62  84 NE9       29.84R

$$

SCZ027-028-034-036>038-045-046-048>050-GAZ119-141-271700-
...LAKE AND SUPPLEMENTAL COASTAL OBSERVATIONS...

STATION/POSITION TIME  TEMP    WIND        PRES    WAVE   SWELL
                       AIR SEA DIR/SP/G            HT/PER HT/PER/DIR
                 (UTC) (F)     (DEG/KT/KT) (MB)    (FT/S) (FT/S/D)
UPR LAKE MARION  NOT AVBL
WINYAH BAY       1445   59     320/  6     1009.0
LAKE MURRAY      1500   62     180/  5/  6 1011.9R
ACE BASIN NERRS  NOT AVBL
FORT PULASKI     1506   61 70  350/  5/  7 1011.3R
SAPELO ISLAND    1500   63      10/  8     1010.0S

$$

ANZ835-935-AMZ111-154-330-350-352-354-370-450-454-472-271700-
...C-MAN AND BUOY OBSERVATIONS...

STATION/POSITION TIME  TEMP    WIND        PRES    WAVE   SWELL
                       AIR SEA DIR/SP/G            HT/PER HT/PER/DIR
                 (UTC) (F)     (DEG/KT/KT) (MB)    (FT/S) (FT/S/D)
BUOY 41004       1550   61 71  350/ 12/ 16 1010.2R   3/ 6   2/ 6
BUOY 41008       1550   63 70   30/ 12/ 14 1010.7R   4/ 6   2/ 60/ 6
FOLLY BEACH CMAN 1500   61     350/  8/ 11 1010.9R
CAPERS NEARSHORE 1508   59     350/  8/ 12 1010.8S
FRIPP NEARSHORE  1500   61      40/  6/  8 1011.2R


STATION/POSITION TIME  TEMP    WIND        PRES    WAVE   SWELL
                       AIR SEA DIR/SP/G            HT/PER HT/PER/DIR
                 (UTC) (F)     (DEG/KT/KT) (MB)    (FT/S) (FT/S/D)
5E ST. MARYS GA  1521      70                N/A     3/ 6
FRYING PAN BUOY  1550   60 71  360/ 12/ 16 1010.6R
BUOY 41025       1550   60 74  360/ 14/ 17 1008.2S   6/10   5/ 70/10
CAPE LOOKOUT NC  1500   60     330/  9/ 11 1009.0R
BUOY 41002       1550   67 71  320/ 10/ 14 1006.7R   6/ 8   5/360/ 8
BUOY 41010       1520   80 79  300/ 17/ 21 1008.2F
ST AUGUSTINE FL  1600   69 69  360/ 10/ 11 1010.2R


$$


USA.gov is the U.S. government's official web portal to all federal, state and local government web resources and services.